[[{"header":{"parameterUnit":"m.s-1","parameterCategory":1,"la1":30.2991,"la2":30.254,"lo1":-89.0895,"lo2":-89.0444,"dy":0.0017,"dx":0.0017,"nx":28,"ny":28,"refTime":"2024-04-15T03:00:00:Z","depth":0,"parameterNumber":2,"parameterNumberName":"U-component_of_WINDS"},"data":[0,0,0,0,0,0,0,0,0,0,0,0,0,0,0,0,0,0,0,0,0,0,0,0,0,0,0,0,0,0,0,0,0,0,0,0,0,0,0,0,0,0,0,0,0,0,0,0,0,0,0,0,0,0,0,0,0,0,-0.8532,-0.8531,0,-0.8494,-0.8494,-0.8493,-0.8458,-0.8458,-0.8457,-0.8457,-0.8418,-0.8418,-0.8417,0,0,0,0,0,0,0,0,0,0,0,0,0,-0.8575,-0.8574,-0.8532,-0.8531,-0.8531,-0.8494,-0.8493,-0.8493,-0.8458,-0.8458,-0.8457,-0.8457,-0.8419,-0.8418,-0.8417,0,0,0,0,0,0,0,0,0,0,0,0,0,-0.8548,-0.8574,-0.8532,-0.8509,-0.8507,-0.8494,-0.8493,-0.8493,-0.8458,-0.8458,-0.8457,-0.8456,-0.8419,-0.8418,-0.8417,-0.8424,0,0,-0.8414,-0.8414,0,0,0,0,0,0,0,0,-0.855,-0.8547,-0.8513,-0.8511,-0.8508,-0.848,-0.8495,-0.847,-0.8458,-0.8477,-0.8457,-0.8456,-0.844,-0.8437,-0.8431,-0.8423,-0.8421,-0.8414,-0.8414,-0.8413,-0.8413,0,0,0,0,0,0,0,-0.8552,-0.8548,-0.8517,-0.8512,-0.8509,-0.8501,-0.8496,-0.849,-0.8462,-0.8475,-0.8472,-0.8468,-0.8438,-0.8432,-0.843,-0.842,-0.8414,-0.8413,-0.8413,-0.8412,-0.8416,-0.8417,0,0,0,0,0,0,-0.8557,-0.855,-0.8518,-0.8516,-0.8528,-0.8501,-0.8496,-0.849,-0.8462,-0.8457,-0.8469,-0.8467,-0.8434,-0.8431,-0.8429,-0.8435,-0.8413,-0.8412,-0.8412,-0.8415,-0.8416,-0.8417,0,0,0,0,0,0,-0.8558,-0.8555,-0.852,-0.8532,-0.8527,-0.8501,-0.8494,-0.8489,-0.8483,-0.8458,-0.8453,-0.8468,-0.8433,-0.843,-0.8426,-0.8433,-0.8412,-0.8411,-0.8415,-0.8416,-0.8416,-0.8449,0,0,0,0,0,0,-0.856,-0.8555,-0.8557,-0.8532,-0.8527,-0.8517,-0.8495,-0.8489,-0.8482,-0.8479,-0.8455,-0.8451,-0.8433,-0.8427,-0.8425,-0.8432,-0.841,-0.8414,-0.8415,-0.8416,-0.8447,-0.8451,-0.8454,0,0,0,0,0,-0.8561,-0.8568,-0.8558,-0.8554,-0.8529,-0.8518,-0.8514,-0.8493,-0.8483,-0.8485,-0.8468,-0.8452,-0.8433,-0.8427,-0.8424,-0.8431,-0.8413,-0.8415,-0.8416,-0.8445,-0.845,-0.8454,0,0,0,0,0,0,-0.8595,-0.8564,-0.8553,-0.8552,-0.8537,-0.8512,-0.8514,-0.8499,-0.8488,-0.8485,-0.846,-0.8455,-0.8453,-0.8442,-0.8436,-0.8437,-0.8421,-0.8422,-0.8444,-0.8448,-0.8452,-0.8455,-0.841,0,0,0,0,0,-0.8602,-0.8595,-0.8569,-0.8571,-0.8564,-0.8541,-0.8535,-0.852,-0.8504,-0.8498,-0.8481,-0.8467,-0.8458,-0.8453,-0.8443,-0.8445,-0.844,-0.8448,-0.8452,-0.8455,-0.8456,-0.8457,-0.846,-0.8422,-0.8422,-0.8422,0,0,-0.8617,-0.86,-0.8597,-0.8577,-0.8565,-0.8558,-0.8536,-0.853,-0.8525,-0.8497,-0.8492,-0.848,-0.8462,-0.8461,-0.846,-0.8451,-0.8466,-0.8457,-0.846,-0.8459,-0.8459,-0.8462,-0.8465,-0.8423,-0.8422,-0.8422,0,0,-0.8641,-0.8627,-0.8627,-0.8615,-0.8596,-0.858,-0.858,-0.8557,-0.8547,-0.8542,-0.8521,-0.8515,-0.85,-0.8488,-0.848,-0.8501,-0.8485,-0.8498,-0.8517,-0.8518,-0.8521,-0.8523,-0.853,-0.8533,-0.8499,-0.8499,-0.8499,0,-0.8662,-0.8652,-0.8629,-0.8625,-0.8617,-0.8591,-0.8591,-0.858,-0.856,-0.8555,-0.8545,-0.8526,-0.8512,-0.8509,-0.8514,-0.8508,-0.8508,-0.8501,-0.8522,-0.8524,-0.8526,-0.8533,-0.8536,-0.8501,-0.8501,-0.8501,-0.8501,0,-0.8679,-0.8672,-0.8674,-0.8655,-0.8647,-0.8645,-0.8622,-0.8617,-0.8603,-0.8588,-0.8583,-0.8566,-0.8552,-0.855,-0.8536,-0.8545,-0.854,-0.8527,-0.851,-0.8532,-0.8538,-0.854,-0.8504,-0.8503,-0.8502,-0.8502,0,0,-0.8723,-0.8691,-0.8692,-0.8683,-0.866,-0.8654,-0.8651,-0.8638,-0.8634,-0.8621,-0.8618,-0.8606,-0.8594,-0.8585,-0.8569,-0.857,-0.8587,-0.8557,-0.8556,-0.8563,-0.8596,-0.8606,-0.8609,-0.8577,-0.8577,-0.8578,-0.8597,0,-0.8743,-0.8736,-0.8715,-0.8714,-0.8708,-0.8684,-0.8681,-0.8667,-0.8653,-0.8646,-0.8631,-0.8623,-0.8607,-0.8602,-0.8601,-0.8585,-0.8594,-0.8584,-0.8574,-0.8574,-0.8579,-0.8612,-0.8622,-0.8642,-0.8599,-0.86,-0.86,0,-0.8766,-0.8754,-0.8752,-0.873,-0.8727,-0.8725,-0.8711,-0.8704,-0.8688,-0.8678,-0.8668,-0.8651,-0.8647,-0.8632,-0.8626,-0.8619,-0.8614,-0.8606,-0.8606,-0.8604,-0.8588,-0.8611,-0.8647,-0.865,-0.8603,-0.8603,-0.8603,0,-0.8798,-0.8782,-0.8778,-0.8771,-0.8745,-0.8745,-0.8734,-0.8717,-0.871,-0.8698,-0.8694,-0.8682,-0.8675,-0.8666,-0.8646,-0.8637,-0.8643,-0.8626,-0.8634,-0.8635,-0.8636,-0.8636,-0.8672,-0.8633,-0.8633,-0.8633,-0.8633,0,-0.8823,-0.8823,-0.8793,-0.8791,-0.879,-0.8767,-0.8767,-0.8754,-0.8739,-0.8735,-0.8713,-0.8709,-0.8683,-0.8677,-0.8661,-0.8658,-0.8656,-0.8647,-0.8643,-0.8649,-0.865,-0.8645,-0.8644,-0.8634,-0.8634,-0.8634,-0.8633,0,-0.8859,-0.8839,-0.8834,-0.881,-0.8804,-0.8804,-0.8784,-0.8781,-0.8766,-0.876,-0.8758,-0.8734,-0.8725,-0.8705,-0.869,-0.868,-0.8681,-0.8674,-0.8687,-0.8684,-0.8694,-0.8693,-0.8727,-0.8731,-0.869,-0.869,-0.8691,0,-0.8876,-0.8876,-0.8851,-0.8847,-0.8837,-0.8829,-0.8822,-0.88,-0.8793,-0.8775,-0.8775,-0.8764,-0.8754,-0.8741,-0.8723,-0.8712,-0.8704,-0.8717,-0.8702,-0.8708,-0.8704,-0.8704,-0.8704,-0.872,-0.872,-0.8721,-0.8721,0,-0.8909,-0.8899,-0.889,-0.8877,-0.8869,-0.8858,-0.8846,-0.8843,-0.8818,-0.8812,-0.8802,-0.8795,-0.878,-0.877,-0.8756,-0.8745,-0.8729,-0.8726,-0.8727,-0.8733,-0.8741,-0.8737,-0.8695,-0.8725,-0.8725,-0.8725,-0.8724,-0.8724,-0.8936,-0.8934,-0.8917,-0.8908,-0.8896,-0.8885,-0.8882,-0.8866,-0.8858,-0.8844,-0.8831,-0.8823,-0.8807,-0.8787,-0.8777,-0.877,-0.8762,-0.8764,-0.8764,-0.8765,-0.8768,-0.8742,-0.8768,-0.8767,-0.8767,-0.8767,-0.8767,0,-0.8968,-0.8955,-0.8947,-0.893,-0.8923,-0.8908,-0.8894,-0.8889,-0.8882,-0.8868,-0.8859,-0.8848,-0.8838,-0.882,-0.8808,-0.8806,-0.8799,-0.8804,-0.8804,-0.8802,-0.8776,-0.8776,-0.881,-0.881,-0.881,-0.881,-0.881,-0.881,-0.8983,-0.898,-0.8968,-0.8959,-0.8946,-0.8938,-0.8931,-0.8921,-0.891,-0.8899,-0.889,-0.8878,-0.8862,-0.885,-0.884,-0.8834,-0.8831,-0.8839,-0.8831,-0.8808,-0.8804,-0.88,-0.8799,-0.8838,-0.8839,-0.8858,-0.8858,-0.8858]},{"header":{"parameterUnit":"m.s-1","parameterCategory":1,"la1":30.2991,"la2":30.254,"lo1":-89.0895,"lo2":-89.0444,"dy":0.0017,"dx":0.0017,"nx":28,"ny":28,"refTime":"2024-04-15T03:00:00:Z","depth":0,"parameterNumber":3,"parameterNumberName":"V-component_of_WINDS"},"data":[0,0,0,0,0,0,0,0,0,0,0,0,0,0,0,0,0,0,0,0,0,0,0,0,0,0,0,0,0,0,0,0,0,0,0,0,0,0,0,0,0,0,0,0,0,0,0,0,0,0,0,0,0,0,0,0,0,0,2.8512,2.8511,0,2.8452,2.8451,2.8451,2.8386,2.8385,2.8384,2.8383,2.8319,2.8318,2.8317,0,0,0,0,0,0,0,0,0,0,0,0,0,2.8568,2.8567,2.8512,2.8511,2.851,2.8452,2.8451,2.845,2.8386,2.8385,2.8384,2.8383,2.8319,2.8318,2.8317,0,0,0,0,0,0,0,0,0,0,0,0,0,2.8529,2.8567,2.8512,2.8471,2.8467,2.8452,2.8451,2.845,2.8386,2.8385,2.8383,2.8382,2.832,2.8318,2.8317,2.8337,0,0,2.8313,2.8313,0,0,0,0,0,0,0,0,2.8532,2.8527,2.8478,2.8474,2.8469,2.8425,2.8447,2.8412,2.8387,2.8417,2.8383,2.8381,2.8355,2.8351,2.8343,2.8334,2.8331,2.8313,2.8312,2.8312,2.8311,0,0,0,0,0,0,0,2.8534,2.853,2.8488,2.8477,2.8472,2.8455,2.8448,2.844,2.8394,2.8414,2.8409,2.8403,2.8352,2.8344,2.8341,2.833,2.8313,2.8312,2.8311,2.8311,2.8333,2.8335,0,0,0,0,0,0,2.8544,2.8532,2.849,2.8486,2.8498,2.8455,2.8447,2.8441,2.8394,2.8386,2.8404,2.84,2.8347,2.8342,2.8338,2.8357,2.8312,2.8311,2.831,2.8332,2.8334,2.8335,0,0,0,0,0,0,2.8545,2.854,2.8492,2.8508,2.8501,2.8456,2.8449,2.844,2.8432,2.8387,2.8378,2.8404,2.8346,2.834,2.8338,2.8354,2.831,2.8309,2.833,2.8332,2.8334,2.8397,0,0,0,0,0,0,2.8547,2.8541,2.8549,2.8509,2.85,2.8494,2.845,2.844,2.843,2.8424,2.8385,2.8377,2.8344,2.834,2.8336,2.8352,2.8308,2.8329,2.8331,2.8334,2.8393,2.8401,2.8407,0,0,0,0,0,2.8549,2.8569,2.855,2.8545,2.8509,2.8495,2.849,2.8453,2.8432,2.8438,2.841,2.8378,2.8353,2.834,2.8336,2.8351,2.8327,2.8331,2.8334,2.839,2.8399,2.8407,0,0,0,0,0,0,2.8611,2.8562,2.8541,2.8548,2.8526,2.8484,2.8492,2.8464,2.8447,2.8442,2.8396,2.8388,2.839,2.837,2.8357,2.8367,2.8336,2.8338,2.838,2.8389,2.8396,2.84,2.8307,0,0,0,0,0,2.8626,2.862,2.8577,2.8587,2.8578,2.8537,2.8529,2.8503,2.8478,2.8468,2.8439,2.8416,2.8402,2.8394,2.838,2.839,2.838,2.8398,2.8405,2.8411,2.8414,2.8417,2.8424,2.8345,2.8345,2.8345,0,0,2.8656,2.8628,2.8627,2.8599,2.8579,2.8573,2.8529,2.8525,2.8519,2.8467,2.8463,2.8441,2.8411,2.8416,2.8416,2.8399,2.8433,2.8415,2.8421,2.8419,2.8421,2.8428,2.8435,2.8347,2.8347,2.8347,0,0,2.8707,2.8686,2.8692,2.8673,2.8643,2.8616,2.8618,2.858,2.8563,2.8559,2.852,2.8512,2.849,2.8471,2.8458,2.8502,2.8472,2.8498,2.8535,2.8539,2.8545,2.855,2.8565,2.8571,2.8501,2.8501,2.8501,0,2.8747,2.8737,2.8698,2.8696,2.8684,2.8638,2.8643,2.8626,2.8593,2.8586,2.8568,2.8539,2.8516,2.8515,2.8525,2.8517,2.8516,2.8502,2.8547,2.8552,2.8556,2.857,2.8576,2.8504,2.8504,2.8504,2.8503,0,2.8788,2.8781,2.879,2.876,2.8749,2.8751,2.8711,2.8705,2.868,2.8654,2.865,2.862,2.8599,2.8596,2.8571,2.8591,2.8581,2.8556,2.8523,2.8568,2.858,2.8585,2.8509,2.8508,2.8507,2.8506,0,0,2.8875,2.8825,2.8828,2.8814,2.8778,2.8772,2.8771,2.8751,2.8746,2.8725,2.8722,2.8705,2.8681,2.8667,2.8639,2.8642,2.8678,2.8616,2.8614,2.8628,2.8697,2.8715,2.8722,2.8658,2.8659,2.8659,2.8699,0,2.8919,2.8916,2.8881,2.8887,2.888,2.8836,2.8835,2.8812,2.8788,2.8778,2.8751,2.874,2.871,2.8701,2.8702,2.8673,2.8691,2.867,2.8654,2.8653,2.8662,2.8728,2.8748,2.8787,2.8703,2.8704,2.8705,0,2.897,2.8953,2.8958,2.8922,2.8918,2.8918,2.8896,2.8888,2.8861,2.8843,2.8827,2.8796,2.8791,2.8762,2.8754,2.8741,2.8732,2.8717,2.8717,2.8713,2.8681,2.8725,2.8798,2.8804,2.8712,2.8711,2.871,0,2.9032,2.9011,2.9011,2.9,2.8958,2.8959,2.8941,2.8913,2.8903,2.8884,2.8877,2.8857,2.8846,2.8832,2.8795,2.8777,2.8791,2.8759,2.8776,2.8777,2.878,2.878,2.8851,2.8776,2.8776,2.8776,2.8776,0,2.9085,2.909,2.9038,2.9038,2.9042,2.9002,2.9007,2.8984,2.896,2.8954,2.8915,2.891,2.8863,2.8853,2.8824,2.8822,2.8817,2.8802,2.8794,2.8805,2.8807,2.8798,2.8794,2.8777,2.8777,2.8777,2.8776,0,2.9155,2.9121,2.9118,2.9079,2.9069,2.9073,2.9039,2.9037,2.9011,2.9004,2.9,2.8959,2.8945,2.8908,2.8883,2.8864,2.8869,2.8855,2.8879,2.8873,2.8892,2.889,2.8959,2.8966,2.8888,2.8888,2.8889,0,2.919,2.9193,2.9154,2.9148,2.9132,2.9122,2.9112,2.9072,2.9063,2.9033,2.9034,2.9017,2.9001,2.898,2.8947,2.8928,2.8913,2.8939,2.891,2.8921,2.8912,2.8912,2.8912,2.8945,2.8946,2.8947,2.8947,0,2.9255,2.9239,2.9226,2.9207,2.9196,2.9179,2.916,2.9157,2.9112,2.9104,2.9089,2.9077,2.9053,2.9036,2.9012,2.8992,2.8962,2.8957,2.8959,2.897,2.8983,2.8975,2.8895,2.8955,2.8954,2.8954,2.8953,2.8953,2.9308,2.9308,2.9281,2.9268,2.925,2.9233,2.9229,2.9203,2.919,2.9168,2.9145,2.9133,2.9105,2.907,2.9053,2.9042,2.9026,2.903,2.9031,2.9032,2.9037,2.8986,2.9037,2.9037,2.9037,2.9036,2.9036,0,2.9371,2.9351,2.934,2.9315,2.9304,2.9278,2.9256,2.9248,2.9238,2.9216,2.9201,2.9184,2.9167,2.9133,2.9113,2.9111,2.9097,2.9107,2.9106,2.9102,2.9052,2.9052,2.9119,2.9119,2.9119,2.9119,2.9119,2.9119,2.9402,2.9401,2.9381,2.937,2.935,2.9339,2.9328,2.9312,2.9293,2.9276,2.9263,2.9241,2.9213,2.9191,2.9174,2.9165,2.9159,2.9173,2.9159,2.9113,2.9106,2.9098,2.9097,2.9173,2.9173,2.9209,2.921,2.921]}]]